Home   Weather   Mykonos   Past weeks
Flag for Greece

Past Weather in Mykonos, Greece — Yesterday and Last 2 Weeks

Now
72 °F

Clear.


Feels Like: 75 °F
Forecast: 77 / 73 °F
Wind: 21 mph from North

Location: Mikonos Airport

Current Time: Jul 19, 2019 at 3:24:21 am

Latest Report: Jul 19, 2019 at 2:50 am


Visibility: 10 mi

Pressure: 29.86 "Hg

Humidity: 65%

Dew Point: 59 °F

Location of MykonosLocation

Past Weather in Mykonos — Graph

°F

Mykonos Temperature Yesterday

Maximum temperature yesterday: 81 °F (at 12:50 pm)
Minimum temperature yesterday: 70 °F (at 6:20 am)
Average temperature yesterday: 76 °F

High & Low Weather Summary for the Past Weeks

 TemperatureHumidityPressure
High90 °F (Jul 8, 3:20 pm)83% (Jul 17, 3:50 am)29.92 "Hg (Jul 17, 3:50 am)
Low68 °F (Jul 12, 3:50 am)38% (Jul 8, 3:20 pm)29.59 "Hg (Jul 11, 5:20 am)
Average78 °F55%29.78 "Hg
* Reported Jul 4 2:20 am — Jul 19 2:20 am, Mykonos. Weather by CustomWeather, © 2019

Note: Actual official high and low records may vary slightly from our data, if they occured in-between our weather recording intervals... More about our weather records

Advertising

Mykonos Weather History for the Previous 24 Hours

Scroll right to see more
 ConditionsComfort  
Time TempWeatherWind HumidityBarometerVisibility
2:20 am
Fri, Jul 19
72 °FClear.12 mph65%29.86 "Hg10 mi
1:50 am72 °FClear.12 mph65%29.86 "Hg10 mi
1:20 am72 °FClear.13 mph61%29.86 "Hg10 mi
12:50 am72 °FClear.12 mph61%29.86 "Hg10 mi
12:20 am73 °FClear.10 mph57%29.86 "Hg10 mi
11:50 pm
Thu, Jul 18
75 °FClear.12 mph54%29.86 "Hg10 mi
11:20 pm75 °FClear.12 mph54%29.86 "Hg10 mi
10:50 pm75 °FClear.12 mph54%29.86 "Hg10 mi
10:20 pm75 °FClear.15 mph54%29.86 "Hg10 mi
9:50 pm77 °FClear.15 mph51%29.86 "Hg10 mi
9:20 pm77 °FClear.16 mph51%29.83 "Hg10 mi
8:50 pm77 °FClear.17 mph51%29.83 "Hg10 mi
8:20 pm79 °FSunny.17 mph48%29.83 "Hg10 mi
7:50 pm79 °FSunny.18 mph48%29.83 "Hg10 mi
7:20 pm79 °FSunny.17 mph48%29.83 "Hg10 mi
6:50 pm81 °FSunny.20 mph42%29.83 "Hg10 mi
6:20 pm81 °FSunny.18 mph45%29.83 "Hg10 mi
5:50 pm81 °FSunny.21 mph42%29.83 "Hg10 mi
5:20 pm81 °FSunny.22 mph42%29.83 "Hg10 mi
4:50 pm81 °FSunny.20 mph42%29.83 "Hg10 mi
4:20 pm81 °FSunny.21 mph42%29.83 "Hg10 mi
3:50 pm81 °FSunny.20 mph42%29.83 "Hg10 mi
3:20 pm81 °FSunny.18 mph42%29.83 "Hg10 mi
2:50 pm81 °FSunny.20 mph42%29.83 "Hg10 mi
2:20 pm81 °FSunny.17 mph42%29.83 "Hg10 mi
1:50 pm81 °FSunny.16 mph39%29.83 "Hg10 mi
1:20 pm81 °FSunny.16 mph39%29.83 "Hg10 mi
12:50 pm81 °FSunny.13 mph39%29.83 "Hg10 mi
12:20 pm79 °FPassing clouds.14 mph42%29.83 "HgN/A
11:20 am77 °FSunny.16 mph47%29.83 "Hg10 mi
10:50 am77 °FSunny.18 mph44%29.80 "Hg10 mi
10:20 am75 °FPassing clouds.15 mph47%29.80 "HgN/A
9:50 am75 °FPassing clouds.14 mph47%29.77 "HgN/A
9:20 am73 °FPassing clouds.14 mph50%29.80 "HgN/A
8:50 am73 °FPassing clouds.16 mph50%29.77 "HgN/A
8:20 am73 °FSunny.13 mph50%29.77 "Hg10 mi
7:50 am72 °FSunny.12 mph50%29.77 "Hg10 mi
7:20 am70 °FSunny.14 mph50%29.74 "Hg10 mi
6:50 am70 °FSunny.14 mph50%29.74 "Hg10 mi
6:20 am70 °FSunny.16 mph50%29.74 "Hg10 mi
5:20 am72 °FClear.15 mph50%29.71 "Hg10 mi
4:50 am72 °FClear.15 mph50%29.71 "Hg10 mi
4:20 am72 °FClear.15 mph50%29.71 "Hg10 mi
3:50 am72 °FClear.17 mph50%29.71 "Hg10 mi
3:20 am73 °FClear.18 mph44%29.71 "Hg10 mi
Weather by CustomWeather, © 2019

See weather overview